Regional Weather Roundup
Issued by NWS

Home | Current Version | Previous Version | Text Only | Print | Product List | Glossary Off
Versions: 1 2 3 4 5 6 7 8 9 10 11 12 13 14 15 16 17 18 19 20 21 22 23 24 25 26 27

000
ASUS45 KTFX 141210
RWRMT
MONTANA REGIONAL WEATHER ROUNDUP
NATIONAL WEATHER SERVICE GREAT FALLS MT
500 AM MST THU DEC 14 2017

NOTE: "FAIR" INDICATES FEW OR NO CLOUDS BELOW 12000 FEET WITH NO
SIGNIFICANT WEATHER AND/OR OBSTRUCTIONS TO VISIBILITY.

MTZ001>007-043-141300-
WEST OF THE DIVIDE

CITY           SKY/WX    TMP DP  RH WIND       PRES   REMARKS
KALISPELL      CLOUDY    25  23  92 CALM      30.52F
MISSOULA       CLOUDY    27  25  92 SE7       30.51F WCI  19
BUTTE          CLOUDY    24  21  88 CALM      30.43R
MULLAN PASS    FAIR      20  19  96 S5        30.35F
ANACONDA         N/A     25  19  80 SW5       30.45R
DEER LODGE       N/A     25  25 100 CALM      30.48R
EUREKA           N/A     23  19  86 MISG      30.56R
HAMILTON         N/A     21  19  93 CALM      30.51R
LIBBY            N/A     27  25  93 CALM      30.53S
RONAN            N/A     27  24  88 CALM      30.50F
$$

MTZ008-052>055-141300-
SOUTHWEST MONTANA

CITY           SKY/WX    TMP DP  RH WIND       PRES   REMARKS
BOZEMAN        FOG       26  24  92 CALM      30.43F VSB 1/4
DILLON         FAIR      15  11  83 CALM      30.41R
W YELLOWSTONE  FAIR      -6  -9  84 CALM      30.37S
ENNIS          CLOUDY    14  12  92 CALM      30.44F
THREE FORKS      N/A     26  24  92 CALM      30.38S VSB 0
$$

MTZ009-010-012-014-046-048-049-054-141300-
EAST SLOPES AND CENTRAL MONTANA

CITY           SKY/WX    TMP DP  RH WIND       PRES   REMARKS
CUT BANK       FAIR      21  17  84 W14       30.33F WCI   8
GREAT FALLS    FAIR      25  20  81 SW10      30.38S WCI  15
MALMSTROM AFB  FAIR      26  23  87 SW13      30.39R WCI  15
HELENA         FOG       13  12  96 W3        30.46R VSB 1/4
CHOTEAU          N/A     25  19  80 SW3       30.38S
$$

MTZ011-013-016-021-045-047-050-051-141300-
NORTH CENTRAL MONTANA

CITY           SKY/WX    TMP DP  RH WIND       PRES   REMARKS
HAVRE          FAIR      22  20  92 SW9       30.34S WCI  12
LEWISTOWN      FAIR      25  21  85 W7        30.32S WCI  17
N BAR RANCH    FAIR      30  19  64 NW31G40   30.24F WCI  15
CHINOOK          N/A     25  21  86 W8        30.33R WCI  16
$$

MTZ017>020-022>027-061-062-141300-
NORTHEAST MONTANA

CITY           SKY/WX    TMP DP  RH WIND       PRES   REMARKS
GLASGOW        CLOUDY    34  25  69 NW17      30.23R WCI  23
GLENDIVE       MIX PCPN  32  26  78 NW24      30.16R WCI  19
JORDAN           N/A     34  23  64 NW16G24   30.25R WCI  24
SIDNEY         LGT RAIN  34  29  82 NW20      30.14R WCI  23
WOLF POINT     CLOUDY    35  29  78 W10       30.21R WCI  27
MALTA          CLOUDY    32  25  74 NW14      30.30R WCI  22
PLENTYWOOD       N/A     32  28  86 N15G21    30.13R WCI  22
POPLAR           N/A     34  28  80 NW16      30.19R WCI  23
SCOBEY           N/A     32  24  72 NW16      30.14  WCI  21
$$

MTZ028>42-056>058-141300-
SOUTHCENTRAL AND SOUTHEAST MONTANA

CITY           SKY/WX    TMP DP  RH WIND       PRES   REMARKS
BAKER          CLOUDY    31  28  89 NW15      30.12S WCI  20
BILLINGS       FAIR      27  21  78 NW9       30.30S WCI  18
LIVINGSTON     CLOUDY    27  22  81 NW14      30.36F WCI  16
MILES CITY     CLOUDY    34  25  69 NW14      30.22R WCI  25
BIG TIMBER     CLEAR     30  23  74 SW13G31   30.35S WCI  20
EKALAKA          N/A     29  24  81 NW13      30.09  WCI  19
FORSYTH          N/A     30  21  69 W10       30.26S WCI  21
LAUREL           N/A     32  23  69 W10       30.31S WCI  24
$$

REGIONAL REPORTS...DAKOTAS

CITY           SKY/WX    TMP DP  RH WIND       PRES   REMARKS
WILLISTON      CLOUDY    34  27  75 N15       30.11R WCI  24
MINOT          CLOUDY    32  28  85 NW20G26   30.01R WCI  20
DICKINSON      CLOUDY    31  27  85 NW21      30.02R WCI  18
BEACH          CLOUDY    30  28  93 NW20      30.13R WCI  18
CROSBY         CLOUDY    30  28  93 NW22G29   30.11R WCI  17
TIOGA          CLOUDY    30  30 100 N20G28    30.08R WCI  18
WATFORD CITY   CLOUDY    32  28  86 NW18      30.09R WCI  20
BISMARCK       CLOUDY    35  30  82 NW12      29.99R WCI  27
GRAND FORKS    FLURRIES  19  16  88 CALM      29.99R
FARGO          CLOUDY    20  15  81 SW6       30.00S WCI  12
BUFFALO SD       N/A     32  28  85 NW35G40   30.01R WCI  17
RAPID CITY     CLOUDY    37  25  61 N22G35    30.06S WCI  26
$$

REGIONAL REPORTS...WYOMING/IDAHO/WASHINGTON

CITY           SKY/WX    TMP DP  RH WIND       PRES   REMARKS
GILLETTE       CLOUDY    33  22  63 NW24G33   30.17R WCI  20
SHERIDAN       CLOUDY    35  23  61 NW20G35   30.25R WCI  24
BUFFALO WY     MOCLDY    35  18  49 NW32G48   30.18R WCI  21
CODY           FAIR      22  19  89 SW6       30.29R WCI  14
YELLOWSTONE LA   N/A      4   0  83 NW3       30.35S
IDAHO FALLS    FOG       22  21  96 SE3       30.45R VSB 1/2
SALMON         CLOUDY    21  19  92 CALM      30.51R
BOISE          CLOUDY    25  21  85 SE13      30.53R WCI  14
SPOKANE        CLOUDY    30  27  88 CALM      30.53R
$$

REGIONAL REPORTS...ALBERTA

CITY           SKY/WX    TMP DP  RH WIND       PRES   REMARKS
EDMONTON       CLEAR     23  19  86 SW7       30.25S WCI  15
CALGARY        MOCLDY    27  18  69 SW6       30.28F WCI  20
LETHBRIDGE     CLEAR     23  18  80 SW10      30.33F WCI  12
MEDICINE HAT   CLEAR     23  19  86 VRB2      30.33F
$$

REGIONAL REPORTS...SASKATCHEWAN

CITY           SKY/WX    TMP DP  RH WIND       PRES   REMARKS
SWIFT CURRENT  CLOUDY    28  25  86 NW14      30.21F WCI  17
REGINA         FLURRIES  28  27  93 NW15G21   30.16R WCI  17
SASKATOON      MOCLDY    27  25  93 W10       30.19R WCI  17
$$




USA.gov is the U.S. government's official web portal to all federal, state and local government web resources and services.